FW8707 Weather Reports


Display with metric or nautical units.
time (UTC)temp
F
wind
direction
speed
MPH
gust
MPH
rain 1hr
in
rain 24hr
in
rain mn
in
humidity
%
barometer
mb
20260903165511 80 67 2.0 5.0 0.00 0.00 0.00 41 1017.2
20260903165009 80 89 2.0 5.0 0.00 0.00 0.00 44 1017.2
20260903164523 80 65 2.0 5.0 0.00 0.00 0.00 42 1017.3
20260903164011 80 344 1.0 4.0 0.00 0.00 0.00 43 1017.3
20260903163517 80 296 1.0 3.0 0.00 0.00 0.00 44 1017.3
20260903163024 79 312 0.0 3.0 0.00 0.00 0.00 44 1017.2
20260903162514 79 345 0.0 3.0 0.00 0.00 0.00 43 1017.2
20260903162017 78 315 1.0 3.0 0.00 0.00 0.00 43 1017.2
20260903161528 78 283 0.0 6.0 0.00 0.00 0.00 45 1017.1
20260903161003 78 280 0.0 7.0 0.00 0.00 0.00 46 1017.0
20260903160504 78 285 2.0 7.0 0.00 0.00 0.00 46 1017.0
20260903160015 77 285 2.0 5.0 0.00 0.00 0.00 46 1017.0
20260903155507 77 282 2.0 5.0 0.00 0.00 0.00 47 1017.0
20260903155009 78 284 1.0 5.0 0.00 0.00 0.00 45 1017.0
20260903154520 77 287 1.0 4.0 0.00 0.00 0.00 45 1017.0
20260903154011 77 283 0.0 4.0 0.00 0.00 0.00 46 1017.0
20260903153511 77 283 2.0 5.0 0.00 0.00 0.00 48 1017.1
20260903153024 76 283 1.0 5.0 0.00 0.00 0.00 47 1017.2
20260903152513 76 282 1.0 4.0 0.00 0.00 0.00 48 1017.2
20260903152015 75 283 0.0 3.0 0.00 0.00 0.00 48 1017.3
20260903151534 75 343 2.0 3.0 0.00 0.00 0.00 48 1017.3
20260903151014 74 1 1.0 4.0 0.00 0.00 0.00 49 1017.3
20260903150518 74 286 1.0 4.0 0.00 0.00 0.00 49 1017.4
20260903150011 73 282 1.0 3.0 0.00 0.00 0.00 50 1017.3
20260903145510 73 282 1.0 3.0 0.00 0.00 0.00 50 1017.4
20260903145008 72 282 1.0 4.0 0.00 0.00 0.00 51 1017.3
20260903144518 72 283 2.0 4.0 0.00 0.00 0.00 51 1017.3
20260903144011 71 282 1.0 4.0 0.00 0.00 0.00 53 1017.3
20260903143509 70 283 1.0 4.0 0.00 0.00 0.00 53 1017.3
20260903143021 70 282 0.0 5.0 0.00 0.00 0.00 54 1017.2
20260903142513 70 281 0.0 5.0 0.00 0.00 0.00 56 1017.2
20260903142014 69 282 2.0 5.0 0.00 0.00 0.00 56 1017.1
20260903141535 69 286 1.0 2.0 0.00 0.00 0.00 56 1017.0
20260903141014 68 282 0.0 4.0 0.00 0.00 0.00 56 1017.0
20260903140514 68 281 1.0 4.0 0.00 0.00 0.00 57 1017.2
20260903140028 67 281 1.0 2.0 0.00 0.00 0.00 58 1017.1
20260903135517 66 279 0.0 1.0 0.00 0.00 0.00 59 1017.0
20260903135008 65 279 0.0 0.0 0.00 0.00 0.00 59 1017.0
20260903134512 64 279 0.0 2.0 0.00 0.00 0.00 62 1017.1
20260903134009 63 279 0.0 2.0 0.00 0.00 0.00 64 1017.0
20260903133509 63 279 0.0 2.0 0.00 0.00 0.00 61 1017.0
20260903133018 62 279 0.0 2.0 0.00 0.00 0.00 61 1016.8
20260903132510 61 279 0.0 2.0 0.00 0.00 0.00 64 1017.0
20260903132012 60 280 0.0 3.0 0.00 0.00 0.00 63 1016.8
20260903131523 60 279 1.0 3.0 0.00 0.00 0.00 63 1016.8
20260903131018 60 270 0.0 1.0 0.00 0.00 0.00 64 1016.6
20260903130517 59 285 0.0 0.0 0.00 0.00 0.00 65 1016.4
20260903130032 59 285 0.0 0.0 0.00 0.00 0.00 65 1016.3
20260903125517 59 279 0.0 0.0 0.00 0.00 0.00 64 1016.5
20260903125017 59 275 0.0 2.0 0.00 0.00 0.00 63 1016.5
20260903124535 59 275 0.0 3.0 0.00 0.00 0.00 63 1016.7
20260903124020 59 270 0.0 3.0 0.00 0.00 0.00 63 1016.6
20260903123506 59 275 0.0 3.0 0.00 0.00 0.00 63 1016.5
20260903123012 59 275 0.0 7.0 0.00 0.00 0.00 63 1016.5
20260903122511 59 279 2.0 7.0 0.00 0.00 0.00 63 1016.4
20260903122010 58 279 1.0 4.0 0.00 0.00 0.00 63 1016.4
20260903121518 58 275 0.0 4.0 0.00 0.00 0.00 64 1016.3
20260903121012 58 275 0.0 3.0 0.00 0.00 0.00 64 1016.3
20260903120514 58 279 0.0 2.0 0.00 0.00 0.00 63 1016.3
20260903120028 59 287 0.0 0.0 0.00 0.00 0.00 63 1016.3
20260903115514 59 287 0.0 1.0 0.00 0.00 0.00 63 1016.3
20260903115016 59 287 0.0 2.0 0.00 0.00 0.00 63 1016.1
20260903114531 59 287 0.0 7.0 0.00 0.00 0.00 63 1016.1
20260903114021 59 287 2.0 7.0 0.00 0.00 0.00 63 1016.1
20260903113518 59 279 1.0 4.0 0.00 0.00 0.00 62 1016.1
20260903113031 59 285 0.0 3.0 0.00 0.00 0.00 63 1016.1
20260903112518 59 275 0.0 3.0 0.00 0.00 0.00 62 1016.0
20260903112007 59 287 0.0 3.0 0.00 0.00 0.00 62 1016.0
20260903111528 59 287 0.0 3.0 0.00 0.00 0.00 62 1016.0
20260903111012 59 275 0.0 4.0 0.00 0.00 0.00 62 1016.0
20260903110513 59 279 2.0 6.0 0.00 0.00 0.00 62 1016.1
20260903110023 59 279 2.0 7.0 0.00 0.00 0.00 62 1016.0
20260903105513 59 287 3.0 7.0 0.00 0.00 0.00 63 1016.1
20260903105015 59 279 0.0 4.0 0.00 0.00 0.00 63 1016.1
20260903104527 59 279 1.0 4.0 0.00 0.00 0.00 63 1016.1
20260903104016 59 285 0.0 4.0 0.00 0.00 0.00 63 1016.1
20260903103513 59 279 0.0 3.0 0.00 0.00 0.00 63 1016.2
20260903103039 59 279 0.0 3.0 0.00 0.00 0.00 64 1016.3
20260903102516 59 275 0.0 3.0 0.00 0.00 0.00 63 1016.2
20260903102018 59 275 0.0 2.0 0.00 0.00 0.00 63 1016.2
20260903101530 59 275 0.0 4.0 0.00 0.00 0.00 63 1016.2
20260903101009 59 275 1.0 4.0 0.00 0.00 0.00 63 1016.3
20260903100510 59 279 1.0 4.0 0.00 0.00 0.00 65 1016.4
20260903100017 60 279 0.0 2.0 0.00 0.00 0.00 65 1016.5
20260903095512 60 279 0.0 1.0 0.00 0.00 0.00 66 1016.5
20260903095011 60 279 0.0 1.0 0.00 0.00 0.00 65 1016.5
20260903094527 60 279 0.0 3.0 0.00 0.00 0.00 65 1016.5
20260903094016 60 279 1.0 3.0 0.00 0.00 0.00 65 1016.5
20260903093515 60 275 0.0 0.0 0.00 0.00 0.00 66 1016.5
20260903093041 60 275 0.0 0.0 0.00 0.00 0.00 66 1016.6
20260903092518 61 275 0.0 1.0 0.00 0.00 0.00 65 1016.6
20260903092020 61 275 0.0 1.0 0.00 0.00 0.00 65 1016.4
20260903091539 61 275 0.0 1.0 0.00 0.00 0.00 63 1016.4
20260903091016 61 275 0.0 1.0 0.00 0.00 0.00 63 1016.4
20260903090519 61 275 0.0 1.0 0.00 0.00 0.00 63 1016.4
20260903090034 62 275 0.0 1.0 0.00 0.00 0.00 62 1016.4
20260903085511 62 275 0.0 3.0 0.00 0.00 0.00 62 1016.4
20260903085011 62 275 1.0 3.0 0.00 0.00 0.00 62 1016.5
20260903084538 62 275 0.0 3.0 0.00 0.00 0.00 62 1016.4
20260903084012 62 275 1.0 3.0 0.00 0.00 0.00 62 1016.4
20260903083514 63 287 0.0 2.0 0.00 0.00 0.00 61 1016.3
20260903083025 63 287 0.0 5.0 0.00 0.00 0.00 60 1016.3
20260903082515 63 287 2.0 5.0 0.00 0.00 0.00 60 1016.5
20260903082017 63 279 0.0 2.0 0.00 0.00 0.00 60 1016.3
20260903081533 63 279 0.0 2.0 0.00 0.00 0.00 60 1016.4
20260903081018 63 275 0.0 3.0 0.00 0.00 0.00 59 1016.5
20260903080522 63 275 0.0 3.0 0.00 0.00 0.00 59 1016.6
20260903080036 64 287 1.0 3.0 0.00 0.00 0.00 59 1016.6
20260903075518 64 275 0.0 3.0 0.00 0.00 0.00 59 1016.7
20260903075017 64 275 1.0 3.0 0.00 0.00 0.00 59 1016.5
20260903074535 64 287 1.0 2.0 0.00 0.00 0.00 60 1016.5
20260903074011 64 287 0.0 4.0 0.00 0.00 0.00 60 1016.4
20260903073512 64 287 0.0 4.0 0.00 0.00 0.00 60 1016.4
20260903073027 65 279 1.0 3.0 0.00 0.00 0.00 61 1016.4
20260903072513 65 287 0.0 2.0 0.00 0.00 0.00 59 1016.5
20260903072014 65 287 0.0 2.0 0.00 0.00 0.00 59 1016.5
20260903071533 65 287 0.0 5.0 0.00 0.00 0.00 58 1016.4
20260903071015 65 275 2.0 5.0 0.00 0.00 0.00 58 1016.4
20260903070519 65 279 2.0 4.0 0.00 0.00 0.00 58 1016.4
20260903070030 65 279 0.0 3.0 0.00 0.00 0.00 58 1016.5
20260903065518 66 275 1.0 3.0 0.00 0.00 0.00 58 1016.5
20260903065017 66 279 0.0 3.0 0.00 0.00 0.00 58 1016.6
20260903064537 66 285 0.0 4.0 0.00 0.00 0.00 58 1016.7
20260903064020 66 285 0.0 4.0 0.00 0.00 0.00 58 1016.7
20260903063519 66 279 1.0 5.0 0.00 0.00 0.00 58 1016.6
20260903063022 66 275 2.0 5.0 0.00 0.00 0.00 58 1016.5
20260903062512 66 279 1.0 5.0 0.00 0.00 0.00 58 1016.5
20260903062012 66 279 3.0 5.0 0.00 0.00 0.00 58 1016.6
20260903061529 66 279 2.0 5.0 0.00 0.00 0.00 58 1016.6
20260903061015 66 275 2.0 5.0 0.00 0.00 0.00 58 1016.6
20260903060515 66 279 3.0 5.0 0.00 0.00 0.00 58 1016.7
20260903060031 67 275 0.0 2.0 0.00 0.00 0.00 59 1016.6
20260903055518 67 285 0.0 2.0 0.00 0.00 0.00 59 1016.8
20260903055015 67 287 0.0 3.0 0.00 0.00 0.00 58 1016.8
20260903054533 67 279 1.0 3.0 0.00 0.00 0.00 57 1016.8
20260903054017 67 275 1.0 3.0 0.00 0.00 0.00 58 1016.7
20260903053521 67 275 0.0 2.0 0.00 0.00 0.00 59 1016.7
20260903053038 67 275 0.0 4.0 0.00 0.00 0.00 59 1016.7
20260903052519 67 275 1.0 4.0 0.00 0.00 0.00 59 1016.6
20260903052020 67 287 1.0 4.0 0.00 0.00 0.00 60 1016.8
20260903051525 67 279 0.0 2.0 0.00 0.00 0.00 61 1016.8
20260903051014 67 279 0.0 0.0 0.00 0.00 0.00 62 1017.0
20260903050514 67 279 0.0 0.0 0.00 0.00 0.00 62 1017.0
20260903050040 67 279 0.0 2.0 0.00 0.00 0.00 62 1017.1
20260903045517 67 279 0.0 3.0 0.00 0.00 0.00 62 1017.3
20260903045016 67 279 0.0 3.0 0.00 0.00 0.00 61 1017.2
20260903044531 67 279 1.0 3.0 0.00 0.00 0.00 61 1016.8
20260903044019 67 279 0.0 3.0 0.00 0.00 0.00 62 1017.0
20260903043517 67 279 0.0 4.0 0.00 0.00 0.00 62 1017.1
20260903043031 67 279 1.0 4.0 0.00 0.00 0.00 62 1017.0
20260903042520 67 279 2.0 4.0 0.00 0.00 0.00 62 1017.0
20260903042019 67 279 2.0 4.0 0.00 0.00 0.00 62 1017.0
20260903041544 68 279 2.0 4.0 0.00 0.00 0.00 61 1017.2
20260903041003 68 286 1.0 4.0 0.00 0.00 0.00 60 1017.3
20260903040505 68 287 0.0 4.0 0.00 0.00 0.00 59 1017.1
20260903040009 69 287 0.0 2.0 0.00 0.00 0.00 57 1017.3
20260903035503 69 280 0.0 0.0 0.00 0.00 0.00 56 1017.0
20260903035005 70 281 0.0 0.0 0.00 0.00 0.00 55 1016.8
20260903034507 70 280 0.0 0.0 0.00 0.00 0.00 55 1016.8
20260903034007 70 281 0.0 0.0 0.00 0.00 0.00 54 1016.8
20260903033505 71 281 0.0 0.0 0.00 0.00 0.00 53 1016.8
20260903033009 71 279 0.0 0.0 0.00 0.00 0.00 52 1016.8
20260903032507 71 279 0.0 0.0 0.00 0.00 0.00 51 1016.6
20260903032008 71 279 0.0 1.0 0.00 0.00 0.00 51 1016.5
20260903031512 72 279 0.0 1.0 0.00 0.00 0.00 50 1016.4
20260903031007 72 279 0.0 2.0 0.00 0.00 0.00 50 1016.5
20260903030510 72 279 0.0 4.0 0.00 0.00 0.00 49 1016.6
20260903030012 72 279 1.0 5.0 0.00 0.00 0.00 49 1016.7
20260903025510 72 279 1.0 5.0 0.00 0.00 0.00 49 1016.6
20260903025006 72 279 3.0 5.0 0.00 0.00 0.00 49 1016.7
20260903024511 72 279 1.0 4.0 0.00 0.00 0.00 50 1016.6
20260903024011 72 270 1.0 2.0 0.00 0.00 0.00 51 1016.4
20260903023508 73 270 0.0 2.0 0.00 0.00 0.00 52 1016.2
20260903023014 73 270 0.0 2.0 0.00 0.00 0.00 53 1016.4
20260903022508 73 270 0.0 2.0 0.00 0.00 0.00 54 1016.5
20260903022005 73 270 0.0 4.0 0.00 0.00 0.00 51 1016.7
20260903021514 73 270 1.0 4.0 0.00 0.00 0.00 51 1016.7
20260903021007 73 270 0.0 5.0 0.00 0.00 0.00 51 1016.6
20260903020508 73 270 1.0 5.0 0.00 0.00 0.00 50 1016.4
20260903020037 73 270 0.0 4.0 0.00 0.00 0.00 50 1016.4
20260903015506 73 270 1.0 4.0 0.00 0.00 0.00 51 1016.7
20260903015006 74 270 0.0 3.0 0.00 0.00 0.00 50 1016.4
20260903014513 74 270 1.0 3.0 0.00 0.00 0.00 50 1016.4
20260903014008 74 282 0.0 4.0 0.00 0.00 0.00 49 1016.3
20260903013508 74 279 0.0 4.0 0.00 0.00 0.00 48 1016.4
20260903013013 75 283 0.0 5.0 0.00 0.00 0.00 48 1016.2
20260903012508 75 282 1.0 5.0 0.00 0.00 0.00 47 1016.2
20260903012007 76 282 0.0 4.0 0.00 0.00 0.00 47 1016.3
20260903011511 76 282 1.0 5.0 0.00 0.00 0.00 46 1016.3
20260903011008 77 282 1.0 7.0 0.00 0.00 0.00 45 1016.3
20260903010511 77 286 2.0 8.0 0.00 0.00 0.00 44 1016.3
20260903010011 78 281 3.0 8.0 0.00 0.00 0.00 42 1016.3
20260903005508 79 40 1.0 5.0 0.00 0.00 0.00 40 1016.2
20260903005013 80 314 0.0 4.0 0.00 0.00 0.00 37 1016.1
20260903004513 80 298 1.0 4.0 0.00 0.00 0.00 36 1016.1
20260903004008 80 154 1.0 8.0 0.00 0.00 0.00 37 1016.0
20260903003509 80 289 1.0 8.0 0.00 0.00 0.00 37 1016.0
20260903003012 80 325 0.0 5.0 0.00 0.00 0.00 36 1015.9
20260903002512 80 283 1.0 5.0 0.00 0.00 0.00 36 1016.0
20260903002012 80 275 1.0 4.0 0.00 0.00 0.00 37 1016.1
20260903001512 80 285 0.0 6.0 0.00 0.00 0.00 39 1016.1
20260903001008 80 231 1.0 6.0 0.00 0.00 0.00 39 1016.1
20260903000508 79 25 2.0 7.0 0.00 0.00 0.00 38 1016.1
20260903000012 79 282 2.0 7.0 0.00 0.00 0.00 40 1016.2
20260902235508 79 327 1.0 8.0 0.00 0.00 0.00 40 1016.4
20260902235008 79 288 3.0 10.0 0.00 0.00 0.00 40 1016.7
20260902234513 78 279 4.0 16.0 0.00 0.00 0.00 39 1016.7
20260902234013 78 281 3.0 16.0 0.00 0.00 0.00 41 1016.7
20260902233508 78 281 5.0 12.0 0.00 0.00 0.00 40 1016.7
20260902233016 78 270 5.0 17.0 0.00 0.00 0.00 42 1016.7
20260902232509 78 289 3.0 17.0 0.00 0.00 0.00 42 1016.5
20260902232007 79 287 9.0 21.0 0.00 0.00 0.00 40 1016.4
20260902231513 80 279 11.0 21.0 0.00 0.00 0.00 38 1016.3
20260902231009 81 279 9.0 18.0 0.00 0.00 0.00 36 1015.9
20260902230509 83 287 8.0 14.0 0.00 0.00 0.00 38 1016.2
20260902230016 86 165 3.0 8.0 0.00 0.00 0.00 27 1016.2
20260902225508 86 177 0.0 3.0 0.00 0.00 0.00 27 1015.6
20260902225008 87 193 0.0 3.0 0.00 0.00 0.00 26 1015.5
20260902224516 87 141 1.0 4.0 0.00 0.00 0.00 25 1015.1
20260902224012 88 270 1.0 8.0 0.00 0.00 0.00 26 1015.1
20260902223511 89 204 1.0 8.0 0.00 0.00 0.00 25 1015.1
20260902223016 90 191 2.0 8.0 0.00 0.00 0.00 24 1015.1
20260902222511 90 70 2.0 8.0 0.00 0.00 0.00 24 1014.9
20260902222011 90 262 1.0 7.0 0.00 0.00 0.00 25 1014.9
20260902221532 89 79 3.0 8.0 0.00 0.00 0.00 24 1015.0
20260902221004 89 179 2.0 9.0 0.00 0.00 0.00 27 1015.0
20260902220504 89 202 3.0 9.0 0.00 0.00 0.00 25 1015.0
20260902220008 89 315 1.0 6.0 0.00 0.00 0.00 25 1015.1
20260902215509 89 85 2.0 7.0 0.00 0.00 0.00 26 1015.1
20260902215007 89 38 2.0 7.0 0.00 0.00 0.00 26 1015.2
20260902214511 88 292 1.0 4.0 0.00 0.00 0.00 25 1015.3
20260902214009 88 192 2.0 6.0 0.00 0.00 0.00 25 1015.3
20260902213511 89 62 0.0 7.0 0.00 0.00 0.00 25 1015.3
20260902213018 90 225 3.0 9.0 0.00 0.00 0.00 25 1015.4
20260902212512 90 221 3.0 9.0 0.00 0.00 0.00 24 1015.4
20260902212011 90 346 1.0 7.0 0.00 0.00 0.00 24 1015.5
20260902211519 90 131 1.0 8.0 0.00 0.00 0.00 25 1015.7
20260902211011 89 209 3.0 8.0 0.00 0.00 0.00 27 1015.7
20260902210513 89 61 3.0 12.0 0.00 0.00 0.00 24 1015.7
20260902210017 89 238 5.0 12.0 0.00 0.00 0.00 25 1015.7
20260902205505 89 300 2.0 10.0 0.00 0.00 0.00 24 1015.9
20260902205007 90 350 1.0 10.0 0.00 0.00 0.00 24 1016.0
20260902204510 90 171 3.0 10.0 0.00 0.00 0.00 23 1016.1
20260902204007 91 135 4.0 10.0 0.00 0.00 0.00 24 1016.2
20260902203509 92 237 1.0 9.0 0.00 0.00 0.00 25 1016.2
20260902203018 92 168 4.0 9.0 0.00 0.00 0.00 23 1016.4
20260902202509 92 201 2.0 8.0 0.00 0.00 0.00 23 1016.5
20260902202013 91 213 1.0 11.0 0.00 0.00 0.00 24 1016.6
20260902201518 91 231 3.0 11.0 0.00 0.00 0.00 23 1016.6
20260902201016 91 177 2.0 10.0 0.00 0.00 0.00 24 1016.5
20260902200511 91 171 4.0 10.0 0.00 0.00 0.00 23 1016.5
20260902200020 92 241 3.0 10.0 0.00 0.00 0.00 23 1016.5
20260902195514 91 235 2.0 10.0 0.00 0.00 0.00 25 1016.6
20260902195012 91 44 3.0 10.0 0.00 0.00 0.00 24 1016.7
20260902194513 91 247 2.0 11.0 0.00 0.00 0.00 24 1016.7
20260902194008 91 242 2.0 11.0 0.00 0.00 0.00 25 1016.8
20260902193508 91 212 1.0 9.0 0.00 0.00 0.00 26 1016.8
20260902193011 91 227 4.0 11.0 0.00 0.00 0.00 24 1016.9
20260902192510 91 283 3.0 11.0 0.00 0.00 0.00 25 1017.0
20260902192011 90 225 3.0 9.0 0.00 0.00 0.00 25 1017.1
20260902191535 90 69 4.0 9.0 0.00 0.00 0.00 25 1017.2
20260902191013 90 23 2.0 9.0 0.00 0.00 0.00 25 1017.2
20260902190514 90 241 2.0 9.0 0.00 0.00 0.00 25 1017.3
20260902190021 90 48 2.0 13.0 0.00 0.00 0.00 24 1017.4
20260902185512 91 50 3.0 13.0 0.00 0.00 0.00 25 1017.5
20260902185012 91 79 6.0 13.0 0.00 0.00 0.00 25 1017.6
20260902184527 91 262 2.0 9.0 0.00 0.00 0.00 26 1017.7
20260902184013 91 153 1.0 5.0 0.00 0.00 0.00 25 1017.8
20260902183514 90 171 2.0 7.0 0.00 0.00 0.00 26 1017.9
20260902183011 90 270 2.0 8.0 0.00 0.00 0.00 25 1018.0
20260902182508 89 39 2.0 13.0 0.00 0.00 0.00 26 1018.0
20260902182009 89 30 4.0 13.0 0.00 0.00 0.00 27 1018.1
20260902181514 89 65 2.0 7.0 0.00 0.00 0.00 27 1018.2
20260902181011 89 61 1.0 8.0 0.00 0.00 0.00 27 1018.4
20260902180511 88 246 3.0 8.0 0.00 0.00 0.00 27 1018.5
20260902180023 88 202 2.0 9.0 0.00 0.00 0.00 27 1018.6
20260902175512 88 192 3.0 10.0 0.00 0.00 0.00 28 1018.7
20260902175014 88 65 4.0 10.0 0.00 0.00 0.00 29 1018.6
20260902174526 88 335 3.0 10.0 0.00 0.00 0.00 31 1018.7
20260902174017 87 137 3.0 10.0 0.00 0.00 0.00 29 1018.9
20260902173514 87 338 2.0 10.0 0.00 0.00 0.00 30 1018.9
20260902173031 87 61 2.0 9.0 0.00 0.00 0.00 29 1018.9
20260902172513 87 229 2.0 12.0 0.00 0.00 0.00 28 1018.8
20260902172014 86 217 2.0 12.0 0.00 0.00 0.00 30 1018.9
20260902171513 86 250 2.0 8.0 0.00 0.00 0.00 30 1018.9
20260902171013 86 232 3.0 8.0 0.00 0.00 0.00 29 1018.9
20260902170511 86 239 1.0 8.0 0.00 0.00 0.00 30 1018.9
20260902170019 86 229 3.0 8.0 0.00 0.00 0.00 29 1019.1